Location: Peebles
(55.6412°N, 3.1714°W)
Time: 21:38:41
(UTC+00:00)

deb Agena D - Pass Details

Date: 30 September 2023
Orbit: 794 x 979 km, 99.8° (Epoch: 28 November)

Event Time Altitude Azimuth Distance (km) Brightness Sun altitude
Rises 01:00:42 0° 19° (NNE) 3,694 10.4 -37.0°
Reaches altitude 10° 01:03:17 10° 24° (NNE) 2,736 9.5 -37.0°
Enters shadow 01:06:56 35° 43° (NE) 1,514 7.7 -37.0°
